SCP
-0 -0 -0 0 0 0 0 0 0 0 0 0 0 0 0 0 0 0 0 0 0 0 0 0 0 0 0 0 0 0 0 0 0 0 0 0 0 0 0 0 0 0 0
0 -0 -0 0 0 0 0 0 0 0 0 0 0 0 0 0 0 0 0 0 0 0 0 0 0 0 0 0 0 0 0 0 0 0 0 0 0 0 0 0 0 0 0
0 -0 -0 0 0 0 0 0 0 0 0 0 0 0 0 0 0 0 0 0 0 0 0 0 0 0 0 0 0 0 0 0 0 0 0 0 0 0 0 0 0 0 0
0 0 0 0 0 0 0 0 0 0 0 0 0 0 0 0 0 0 0 0 0 0 0 0 0 0 0 0 0 0 0 0 0 0 0 0 0 0 0 0 0 0 0
0 0 0 0 0 0 0 0 0 0 0 0 0 -0 -0 -0 0 0 0 0 0 0 0 0 0 0 0 0 0 0 0 0 0 0 0 0 0 0 0 0 0 0 0
0 0 0 0 0 0 0 0 0 0 0 0 0 -0 -0 -0 -0 0 0 0 0 0 0 0 0 0 0 0 0 0 0 0 0 0 0 0 0 0 0 0 0 0 0
0 0 0 0 0 0 0 0 0 0 0 0 0 -0 -0 -0 -0 0 0 0 0 0 0 0 0 0 0 0 0 0 0 0 0 0 0 0 0 0 0 0 0 0 0
0 0 0 0 0 0 0 0 0 0 0 0 0 -0 -0 -0 -0 -0 0 0 0 0 0 -0 -0 0 0 0 0 0 0 0 0 0 0 0 0 0 0 0 0 0 0
0 0 0 0 0 0 0 0 0 0 0 0 0 0 -0 -0 -0 -0 0 0 0 0 0 -0 -0 0 0 0 0 0 0 0 0 0 0 0 0 0 0 0 0 0 0
0 0 0 0 0 0 0 0 0 0 0 0 0 0 -0 -0 -0 -0 0 0 0 0 0 0 0 0 0 0 0 0 0 0 0 0 0 0 0 0 0 0 0 0 0
0 0 0 1 0 0 0 0 0 0 0 0 0 0 0 -0 -0 -0 0 0 0 0 0 0 0 0 0 0 0 0 0 0 0 0 0 0 0 0 0 0 0 0 0
1 1 1 1 0 0 0 0 0 0 0 0 0 0 0 0 -0 0 0 0 0 0 0 0 0 0 0 0 0 0 0 0 0 0 0 0 0 0 0 0 0 0 0
1 1 1 1 1 0 0 0 0 0 0 0 0 0 0 0 0 0 0 0 0 0 0 0 0 0 0 0 0 0 0 0 0 0 0 0 0 0 0 0 0 0 0
1 1 1 1 1 0 0 0 0 0 0 0 0 0 0 0 0 0 0 0 0 0 0 0 0 0 0 0 0 0 0 0 0 0 0 0 0 0 0 0 0 0 0
0 0 1 1 1 0 0 0 0 0 0 0 0 0 0 0 0 0 0 0 0 0 0 0 0 0 0 0 0 0 0 0 0 0 0 0 0 0 0 0 0 0 0
0 0 0 1 1 0 0 0 0 0 0 0 0 0 0 0 0 0 0 0 0 0 0 0 0 0 0 0 0 0 0 0 0 0 0 0 0 0 0 0 0 0 0
0 0 0 0 1 0 0 0 0 0 0 0 0 0 0 0 0 0 0 0 0 0 0 0 0 0 0 0 0 0 0 0 0 0 0 0 0 0 0 0 0 0 0
0 0 0 0 0 0 0 0 0 0 0 0 0 0 0 0 0 0 0 0 0 0 0 0 0 0 0 0 0 0 0 0 0 0 0 0 0 0 0 0 0 0 0
0 0 0 0 0 0 0 0 0 0 0 0 0 0 0 0 0 0 0 0 0 0 0 0 0 0 0 0 0 0 0 0 0 0 0 0 0 0 0 0 0 0 0
0 0 0 0 0 0 0 0 0 0 0 0 0 0 0 0 0 0 0 0 0 0 0 0 0 0 0 0 0 0 0 0 0 0 0 0 0 0 0 0 0 0 0
0 0 0 0 0 0 0 0 0 0 0 0 0 0 0 0 0 0 0 0 0 0 0 0 0 0 0 0 0 0 0 0 0 0 0 0 0 0 0 0 0 0 0
0 0 0 0 0 0 0 0 0 0 0 0 0 0 0 0 0 0 0 0 0 0 0 0 0 0 0 0 0 0 0 0 0 0 0 0 0 0 0 0 0 0 0
0 0 0 0 0 0 0 0 0 0 0 0 0 0 0 0 0 0 0 0 0 0 0 0 0 0 0 0 0 0 0 0 0 0 0 0 0 0 0 0 0 0 0
0 0 0 0 0 0 0 0 0 0 0 0 0 0 0 0 0 0 0 0 0 0 0 0 0 0 0 0 0 0 0 0 0 0 0 0 0 0 0 0 0 0 0
0 0 0 0 0 0 0 0 0 0 0 0 0 0 0 0 0 0 0 0 0 0 0 0 0 0 0 0 0 0 0 0 0 0 0 0 0 0 0 0 0 0 0
0 0 0 0 0 0 0 0 0 0 0 0 0 0 0 0 0 0 0 0 0 0 0 0 0 0 0 0 0 0 0 0 0 0 0 0 0 0 0 0 0 0 0
Wind_Speed
4 6 16 16 16 15 13 12 10 9 9 7 7 8 9 9 9 7 5 5 6 6 6 7 8 9 9 7 7 6 4 3 5 6 7 6 6 6 6 4 5 3 4
7 8 14 16 17 16 14 12 10 9 9 7 8 9 9 7 6 5 5 5 4 5 6 6 6 6 7 7 6 4 3 3 4 5 5 4 4 5 6 5 3 2 4
7 10 11 15 17 16 14 13 11 10 9 8 8 7 7 6 6 5 5 5 4 4 5 5 5 6 5 5 4 4 4 4 4 5 5 3 3 6 6 6 3 3 5
9 9 8 14 17 16 15 13 11 10 9 9 9 8 7 6 6 7 7 6 4 3 3 3 4 4 4 4 5 5 5 6 5 4 2 2 3 8 9 7 6 6 7
7 7 9 15 15 15 15 13 12 10 9 9 7 4 3 6 8 8 8 7 6 4 3 2 2 2 3 4 4 5 5 5 4 3 1 2 2 8 10 9 8 7 7
7 6 8 13 14 15 15 13 12 11 10 8 7 4 1 2 6 8 7 6 6 5 2 1 1 2 4 5 6 7 7 6 3 1 2 3 3 8 10 10 10 10 10
7 6 7 14 14 15 14 13 12 11 9 8 8 6 3 2 3 6 6 6 6 3 1 1 3 5 6 7 8 9 9 6 2 2 4 4 5 10 11 11 12 12 12
7 6 7 14 14 14 14 13 12 10 9 8 8 7 4 1 5 3 5 6 5 2 2 4 6 7 7 8 8 9 9 7 5 3 4 5 10 13 13 12 13 13 14
6 6 6 7 9 13 12 12 11 10 9 8 7 6 3 1 3 4 4 4 2 1 4 6 8 8 8 8 8 8 8 8 5 3 5 5 10 13 13 13 13 13 14
5 6 6 6 6 7 8 11 11 10 9 8 7 5 3 2 2 3 3 2 1 3 5 7 8 8 8 8 9 9 8 7 4 4 4 6 13 14 14 14 13 14 15
7 6 6 7 6 6 6 7 8 8 8 8 6 6 4 1 1 2 2 2 4 5 6 8 9 10 9 9 11 11 8 3 5 4 4 9 12 13 14 14 14 14 15
11 10 8 9 7 6 5 4 4 4 4 4 4 4 3 2 1 1 2 3 4 5 5 7 11 11 9 5 7 9 4 5 4 4 4 10 10 10 11 12 13 12 13
9 11 11 10 8 6 4 4 3 2 3 3 4 3 3 2 1 2 1 2 3 3 4 7 8 6 5 4 4 4 4 3 3 3 5 11 10 9 8 8 9 10 11
6 8 9 10 9 8 5 4 4 3 3 3 3 4 3 2 2 2 1 2 3 3 5 4 3 4 5 5 4 4 5 4 3 3 5 12 12 12 10 11 12 14 14
8 9 9 10 10 8 6 4 4 4 4 4 3 3 4 3 3 3 3 4 5 4 4 4 3 4 5 5 5 5 5 6 5 5 4 11 14 15 16 17 16 15 14
11 11 11 13 11 9 7 6 5 4 4 4 3 4 5 4 4 4 5 5 4 4 4 4 4 4 4 3 5 5 4 5 4 5 4 7 14 17 18 18 18 17 17
9 8 10 12 12 11 9 7 6 6 5 5 5 6 6 6 6 6 5 5 3 3 4 3 3 3 5 5 5 4 3 4 4 5 5 4 6 13 18 19 19 18 17
7 7 9 10 12 11 9 7 6 6 6 6 6 6 8 8 8 6 5 4 3 4 4 4 4 4 5 5 5 4 3 2 3 4 4 5 4 5 10 18 19 18 17
7 7 9 10 12 12 10 8 8 6 6 6 6 6 7 8 8 7 5 4 4 5 5 4 4 4 4 6 7 4 3 2 2 4 4 5 5 4 4 11 17 17 17
6 8 9 11 12 13 11 9 8 8 6 6 6 6 8 8 8 7 5 5 5 5 5 4 4 4 3 4 6 6 3 2 1 3 3 3 3 4 5 5 6 10 16
5 9 12 13 12 12 10 8 8 7 6 6 6 7 8 8 7 7 6 5 5 5 5 5 4 5 4 4 4 6 4 3 2 2 2 1 3 5 5 7 7 6 6
7 9 12 13 12 11 9 6 5 7 6 6 5 6 6 7 7 7 7 5 5 5 6 7 5 3 3 4 3 3 5 6 5 3 3 2 5 5 7 10 9 8 6
7 9 10 11 12 12 12 10 9 7 6 5 4 4 4 6 7 7 7 5 5 6 5 5 4 4 3 3 4 4 3 4 5 5 5 3 4 4 5 5 8 8 9
7 8 10 11 12 13 14 14 15 9 6 5 4 4 5 6 7 6 6 6 6 5 5 4 4 3 3 2 3 2 1 3 3 6 4 3 3 5 5 7 9 9 9
8 9 11 11 12 13 13 15 14 9 7 6 6 7 6 5 6 6 6 6 6 5 5 5 4 3 2 1 1 2 2 2 1 3 7 5 5 4 4 7 7 7 8
8 9 11 12 11 11 12 13 14 15 13 11 8 7 5 4 4 5 6 6 5 5 4 3 2 2 1 1 0 1 1 1 2 3 6 9 9 6 7 7 6 5 6
Wind_Direction
212 191 186 168 163 162 158 152 145 137 130 128 136 139 137 138 138 138 141 125 106 79 59 38 29 30 45 63 81 87 80 53 16 14 9 0 342 316 286 259 264 271 268
167 170 185 170 165 163 160 154 150 145 139 139 146 143 134 134 142 146 146 132 111 75 50 31 25 25 34 39 46 48 30 356 352 353 9 14 351 322 305 295 265 217 266
151 164 182 169 166 163 161 156 155 155 155 151 151 153 145 152 157 156 160 143 107 78 54 35 31 26 22 14 7 360 348 339 324 328 10 20 341 327 308 288 238 270 283
153 160 170 166 163 163 162 159 161 162 162 163 162 167 180 186 173 163 164 159 147 122 79 52 43 32 24 4 342 328 320 316 331 336 31 2 341 325 321 286 244 251 268
151 155 165 165 164 166 164 164 167 168 170 173 176 163 188 207 199 186 175 176 169 152 121 84 51 11 355 341 325 318 317 320 336 340 342 327 318 312 311 299 268 263 280
153 152 163 165 169 168 166 168 172 175 177 179 181 169 149 228 226 213 194 170 155 149 142 108 338 312 320 319 311 308 307 301 316 271 276 280 277 289 290 287 285 274 264
157 159 167 171 174 171 171 172 176 179 182 184 188 189 177 16 334 223 192 150 147 151 190 304 313 316 323 324 318 314 318 320 299 259 270 270 269 279 279 273 269 271 265
160 166 174 181 178 174 174 175 177 181 185 184 189 194 189 33 15 38 151 147 156 192 282 315 324 322 323 322 318 316 316 317 314 282 265 265 271 279 280 274 268 265 268
164 167 176 179 174 172 172 174 177 180 182 182 188 188 174 127 31 42 103 141 168 282 319 321 321 323 323 320 317 318 320 320 314 284 272 264 274 281 281 277 269 261 258
172 175 173 170 165 162 167 175 177 179 179 181 178 150 130 109 47 36 64 88 277 297 312 316 317 321 329 332 336 343 346 337 320 297 283 285 294 294 291 290 283 272 265
192 190 180 174 169 162 162 174 176 180 179 170 157 141 122 79 19 360 318 306 313 317 325 331 345 3 15 13 15 13 8 359 333 312 294 303 312 312 313 313 307 295 284
201 199 193 189 182 169 168 155 154 160 159 149 141 133 120 94 13 326 324 340 350 348 354 20 36 37 39 28 23 25 14 358 353 329 320 330 329 323 322 323 325 324 314
201 201 199 196 186 175 161 143 143 141 141 145 147 146 126 99 62 59 40 17 19 19 37 45 48 39 35 30 24 18 9 2 346 330 332 350 351 344 340 342 349 356 354
202 204 202 198 188 180 161 152 153 150 152 155 158 155 133 114 95 80 74 68 54 53 59 50 47 43 37 30 25 20 15 358 347 339 349 10 22 22 23 29 29 28 23
211 206 194 192 190 178 162 155 157 160 161 158 157 155 139 128 123 105 79 69 61 59 62 54 46 43 32 18 14 18 12 355 356 356 357 21 31 28 33 31 26 21 20
223 215 191 186 182 171 165 160 161 155 149 146 149 150 143 134 122 102 83 71 60 57 61 57 49 45 31 9 3 6 8 359 4 10 12 22 30 31 31 29 24 18 18
234 214 191 182 170 166 162 162 156 153 147 144 140 137 126 116 106 97 88 76 61 56 62 56 40 43 27 8 349 349 7 5 20 21 23 28 21 31 31 29 22 17 13
232 196 181 175 163 156 148 142 139 141 138 129 121 115 110 106 103 99 94 83 70 59 49 45 28 26 17 356 333 331 358 356 29 33 41 41 27 34 27 26 20 13 7
206 174 159 155 153 143 130 120 114 116 113 112 109 108 107 104 102 100 92 81 68 58 42 34 34 28 8 348 326 325 354 344 34 38 48 47 32 35 30 18 15 5 357
177 155 142 144 143 131 121 114 108 98 91 92 96 104 106 102 101 98 89 76 68 62 42 29 26 21 2 339 326 324 330 337 7 30 37 40 25 26 24 10 7 350 348
157 148 147 148 145 138 134 132 127 115 107 94 90 96 101 102 99 95 93 79 72 72 59 38 30 18 360 352 349 331 333 353 331 334 12 25 17 17 11 2 351 335 325
170 156 151 151 151 144 137 127 117 116 104 90 91 89 92 99 99 96 93 90 84 81 61 46 40 28 4 11 11 354 348 342 340 335 344 13 17 12 5 347 328 317 309
179 162 152 150 147 138 130 118 114 106 102 101 98 82 77 89 89 94 97 97 83 79 71 57 46 50 13 356 31 40 12 318 305 313 327 344 1 6 334 317 312 307 302
175 152 145 148 145 144 141 141 143 142 140 141 131 112 91 83 89 93 94 89 82 79 75 62 59 52 53 12 348 14 249 246 290 311 300 298 328 316 297 314 305 295 290
154 151 149 145 148 152 151 150 145 132 120 118 114 110 96 83 83 87 88 85 82 79 77 66 60 59 79 81 345 317 309 295 252 278 291 303 304 273 285 285 280 284 289
150 151 153 151 153 154 147 147 144 139 136 137 134 125 112 96 80 81 85 84 83 79 74 68 62 56 53 42 288 250 250 282 296 279 286 305 304 289 280 272 274 285 290